Station Historical Data
Daily Summary for May 18, 2017 Units:  English    Metric   Both
« Previous Day
Next Day »
Daily Weekly Monthly Yearly Custom
  High: Low: Average:
Temperature: 83.2 °F 69.4 °F 75.8 °F
Dew Point: 65.4 °F 56.2 °F 60 °F
Humidity: 66% 52% 58%
Wind Speed: 18.0mph 1.0mph 6.8mph
Wind Gust: 28.0mph - -
Wind- - SW
Pressure: 29.82 in 29.72 in -
Precipitation: 0.00 in    
Historical Graphs
 
 
Tabular Data for May 18, 2017
Time Temperature Dew Point Pressure Wind Wind Speed Wind Gust Humidity Rainfall Rate (Hourly)
00:00 74.8 °F 59.5 °F 29.79 in SSW 5.0 mph 10.0 mph 59% 0.00 in
00:05 74.9 °F 59.6 °F 29.79 in SSW 3.0 mph 9.0 mph 59% 0.00 in
00:10 74.9 °F 59.6 °F 29.79 in SW 2.0 mph 7.0 mph 59% 0.00 in
00:15 74.9 °F 59.6 °F 29.79 in SSW 4.0 mph 8.0 mph 59% 0.00 in
00:20 74.8 °F 59.5 °F 29.79 in SSW 4.0 mph 11.0 mph 59% 0.00 in
00:25 75.0 °F 59.7 °F 29.79 in SSW 6.0 mph 10.0 mph 59% 0.00 in
00:30 75.0 °F 59.7 °F 29.79 in SSW 3.0 mph 10.0 mph 59% 0.00 in
00:35 74.8 °F 59.5 °F 29.78 in SW 3.0 mph 8.0 mph 59% 0.00 in
00:40 74.7 °F 59.4 °F 29.78 in SSW 3.0 mph 10.0 mph 59% 0.00 in
00:45 74.6 °F 59.8 °F 29.78 in SW 4.0 mph 10.0 mph 60% 0.00 in
00:50 74.5 °F 59.7 °F 29.78 in SW 3.0 mph 8.0 mph 60% 0.00 in
00:55 74.4 °F 59.6 °F 29.78 in SW 4.0 mph 8.0 mph 60% 0.00 in
01:00 74.3 °F 59.5 °F 29.79 in SSW 5.0 mph 7.0 mph 60% 0.00 in
01:05 74.3 °F 59.5 °F 29.79 in SSW 4.0 mph 8.0 mph 60% 0.00 in
01:10 74.2 °F 59.4 °F 29.79 in SW 3.0 mph 7.0 mph 60% 0.00 in
01:15 74.2 °F 59.4 °F 29.79 in SW 4.0 mph 7.0 mph 60% 0.00 in
01:20 74.4 °F 59.6 °F 29.80 in SW 4.0 mph 10.0 mph 60% 0.00 in
01:25 74.6 °F 59.3 °F 29.80 in SW 5.0 mph 11.0 mph 59% 0.00 in
01:30 74.7 °F 59.4 °F 29.80 in WSW 6.0 mph 8.0 mph 59% 0.00 in
01:35 74.6 °F 59.3 °F 29.80 in SW 4.0 mph 8.0 mph 59% 0.00 in
01:40 74.7 °F 58.9 °F 29.80 in SSW 3.0 mph 12.0 mph 58% 0.00 in
01:45 74.7 °F 58.9 °F 29.81 in SW 4.0 mph 12.0 mph 58% 0.00 in
01:50 74.8 °F 59.0 °F 29.81 in South 4.0 mph 14.0 mph 58% 0.00 in
01:55 74.9 °F 58.6 °F 29.81 in SW 5.0 mph 14.0 mph 57% 0.00 in
02:00 75.0 °F 58.7 °F 29.81 in SW 5.0 mph 11.0 mph 57% 0.00 in
02:05 75.0 °F 58.7 °F 29.81 in SW 6.0 mph 11.0 mph 57% 0.00 in
02:10 74.9 °F 58.6 °F 29.81 in West 5.0 mph 10.0 mph 57% 0.00 in
02:15 74.7 °F 58.5 °F 29.81 in SW 5.0 mph 10.0 mph 57% 0.00 in
02:20 74.6 °F 58.4 °F 29.82 in WSW 7.0 mph 11.0 mph 57% 0.00 in
02:25 74.4 °F 58.2 °F 29.82 in SW 5.0 mph 7.0 mph 57% 0.00 in
02:30 74.2 °F 58.5 °F 29.81 in SW 4.0 mph 10.0 mph 58% 0.00 in
02:35 74.0 °F 58.3 °F 29.81 in SW 1.0 mph 7.0 mph 58% 0.00 in
02:40 73.9 °F 58.2 °F 29.81 in SW 2.0 mph 7.0 mph 58% 0.00 in
02:45 73.7 °F 58.5 °F 29.81 in SW 3.0 mph 7.0 mph 59% 0.00 in
02:50 73.7 °F 58.5 °F 29.81 in SW 4.0 mph 9.0 mph 59% 0.00 in
02:55 73.7 °F 58.5 °F 29.81 in SW 5.0 mph 9.0 mph 59% 0.00 in
03:00 73.9 °F 58.2 °F 29.81 in SW 4.0 mph 9.0 mph 58% 0.00 in
03:05 74.0 °F 58.3 °F 29.81 in SW 4.0 mph 9.0 mph 58% 0.00 in
03:10 74.1 °F 58.4 °F 29.80 in SW 4.0 mph 7.0 mph 58% 0.00 in
03:15 74.2 °F 58.5 °F 29.80 in WSW 3.0 mph 8.0 mph 58% 0.00 in
03:20 74.3 °F 58.6 °F 29.80 in SW 6.0 mph 8.0 mph 58% 0.00 in
03:25 74.2 °F 58.5 °F 29.80 in WSW 6.0 mph 11.0 mph 58% 0.00 in
03:30 74.2 °F 58.5 °F 29.80 in SW 10.0 mph 10.0 mph 58% 0.00 in
03:35 74.4 °F 58.7 °F 29.80 in SSW 4.0 mph 11.0 mph 58% 0.00 in
03:40 74.3 °F 58.6 °F 29.80 in West 3.0 mph 10.0 mph 58% 0.00 in
03:45 74.1 °F 58.4 °F 29.80 in SW 5.0 mph 10.0 mph 58% 0.00 in
03:50 74.0 °F 58.3 °F 29.80 in SW 4.0 mph 9.0 mph 58% 0.00 in
03:55 73.8 °F 58.1 °F 29.80 in SW 4.0 mph 9.0 mph 58% 0.00 in
04:00 73.6 °F 57.9 °F 29.81 in SW 4.0 mph 8.0 mph 58% 0.00 in
04:05 73.7 °F 58.0 °F 29.81 in South 9.0 mph 11.0 mph 58% 0.00 in
04:10 73.7 °F 58.0 °F 29.81 in SW 4.0 mph 11.0 mph 58% 0.00 in
04:15 73.9 °F 57.7 °F 29.81 in SW 4.0 mph 9.0 mph 57% 0.00 in
04:20 73.8 °F 57.6 °F 29.81 in SSW 3.0 mph 11.0 mph 57% 0.00 in
04:25 73.9 °F 57.7 °F 29.81 in SW 8.0 mph 9.0 mph 57% 0.00 in
04:30 74.0 °F 57.3 °F 29.81 in WSW 2.0 mph 9.0 mph 56% 0.00 in
04:35 74.0 °F 57.3 °F 29.81 in SW 4.0 mph 9.0 mph 56% 0.00 in
04:40 74.1 °F 57.4 °F 29.81 in SW 5.0 mph 13.0 mph 56% 0.00 in
04:45 74.3 °F 57.6 °F 29.81 in SW 5.0 mph 13.0 mph 56% 0.00 in
04:50 74.4 °F 57.2 °F 29.81 in SSE 4.0 mph 13.0 mph 55% 0.00 in
04:55 74.6 °F 57.4 °F 29.81 in West 5.0 mph 11.0 mph 55% 0.00 in
05:00 74.6 °F 57.4 °F 29.81 in SW 2.0 mph 9.0 mph 55% 0.00 in
05:05 74.4 °F 57.2 °F 29.81 in SW 4.0 mph 9.0 mph 55% 0.00 in
05:10 74.4 °F 57.2 °F 29.81 in SW 4.0 mph 10.0 mph 55% 0.00 in
05:15 74.6 °F 57.4 °F 29.81 in SW 5.0 mph 12.0 mph 55% 0.00 in
05:20 74.7 °F 57.5 °F 29.81 in SW 4.0 mph 11.0 mph 55% 0.00 in
05:25 74.8 °F 57.5 °F 29.81 in South 4.0 mph 10.0 mph 55% 0.00 in
05:30 74.9 °F 58.1 °F 29.81 in West 4.0 mph 11.0 mph 56% 0.00 in
05:35 74.7 °F 58.0 °F 29.81 in SW 5.0 mph 11.0 mph 56% 0.00 in
05:40 74.7 °F 58.0 °F 29.81 in SW 5.0 mph 12.0 mph 56% 0.00 in
05:45 74.9 °F 58.1 °F 29.81 in SW 6.0 mph 13.0 mph 56% 0.00 in
05:50 74.8 °F 58.1 °F 29.82 in SW 5.0 mph 10.0 mph 56% 0.00 in
05:55 74.6 °F 58.4 °F 29.82 in SSW 5.0 mph 8.0 mph 57% 0.00 in
06:00 74.3 °F 58.1 °F 29.81 in SW 5.0 mph 12.0 mph 57% 0.00 in
06:05 74.3 °F 58.6 °F 29.81 in SW 5.0 mph 12.0 mph 58% 0.00 in
06:10 74.3 °F 58.6 °F 29.81 in SW 5.0 mph 11.0 mph 58% 0.00 in
06:15 74.1 °F 58.4 °F 29.81 in SSW 4.0 mph 10.0 mph 58% 0.00 in
06:20 74.2 °F 58.5 °F 29.81 in SSW 5.0 mph 8.0 mph 58% 0.00 in
06:25 73.9 °F 58.7 °F 29.82 in SW 4.0 mph 8.0 mph 59% 0.00 in
06:30 73.8 °F 58.6 °F 29.82 in SW 3.0 mph 7.0 mph 59% 0.00 in
06:35 73.7 °F 58.9 °F 29.82 in SW 3.0 mph 8.0 mph 60% 0.00 in
06:40 74.0 °F 59.2 °F 29.82 in South 1.0 mph 5.0 mph 60% 0.00 in
06:45 74.1 °F 58.9 °F 29.82 in SSW 3.0 mph 7.0 mph 59% 0.00 in
06:50 74.2 °F 58.9 °F 29.82 in SSE 2.0 mph 7.0 mph 59% 0.00 in
06:55 74.3 °F 59.5 °F 29.82 in SSW 5.0 mph 7.0 mph 60% 0.00 in
07:00 74.7 °F 59.4 °F 29.82 in SW 2.0 mph 9.0 mph 59% 0.00 in
07:05 74.8 °F 59.5 °F 29.82 in SW 4.0 mph 9.0 mph 59% 0.00 in
07:10 75.1 °F 59.3 °F 29.82 in SW 4.0 mph 10.0 mph 58% 0.00 in
07:15 75.1 °F 59.8 °F 29.81 in SW 5.0 mph 11.0 mph 59% 0.00 in
07:20 75.0 °F 59.7 °F 29.81 in SW 4.0 mph 11.0 mph 59% 0.00 in
07:25 75.1 °F 59.8 °F 29.81 in SSW 3.0 mph 9.0 mph 59% 0.00 in
07:30 75.3 °F 60.0 °F 29.81 in SW 8.0 mph 10.0 mph 59% 0.00 in
07:35 75.2 °F 59.9 °F 29.81 in SW 5.0 mph 10.0 mph 59% 0.00 in
07:40 75.1 °F 59.8 °F 29.80 in SW 11.0 mph 12.0 mph 59% 0.00 in
07:45 75.0 °F 59.7 °F 29.81 in SW 8.0 mph 15.0 mph 59% 0.00 in
07:50 75.3 °F 60.0 °F 29.80 in SSW 3.0 mph 13.0 mph 59% 0.00 in
07:55 75.6 °F 60.3 °F 29.80 in SW 3.0 mph 15.0 mph 59% 0.00 in
08:00 76.2 °F 59.9 °F 29.80 in SW 5.0 mph 10.0 mph 57% 0.00 in
08:05 76.8 °F 60.9 °F 29.80 in SW 5.0 mph 10.0 mph 58% 0.00 in
08:10 76.9 °F 60.5 °F 29.80 in SW 5.0 mph 10.0 mph 57% 0.00 in
08:15 76.7 °F 60.8 °F 29.80 in SSW 5.0 mph 12.0 mph 58% 0.00 in
08:20 76.6 °F 60.2 °F 29.80 in SW 5.0 mph 13.0 mph 57% 0.00 in
08:25 76.4 °F 60.0 °F 29.80 in SW 8.0 mph 14.0 mph 57% 0.00 in
08:30 76.3 °F 59.9 °F 29.80 in SSW 7.0 mph 13.0 mph 57% 0.00 in
08:35 76.4 °F 60.5 °F 29.79 in SW 6.0 mph 13.0 mph 58% 0.00 in
08:40 76.6 °F 60.2 °F 29.80 in SSW 6.0 mph 13.0 mph 57% 0.00 in
08:45 76.8 °F 60.4 °F 29.79 in SSW 6.0 mph 13.0 mph 57% 0.00 in
08:50 77.1 °F 61.2 °F 29.79 in SW 3.0 mph 12.0 mph 58% 0.00 in
08:55 77.4 °F 61.0 °F 29.79 in SW 2.0 mph 12.0 mph 57% 0.00 in
09:00 77.4 °F 61.0 °F 29.79 in SSW 6.0 mph 17.0 mph 57% 0.00 in
09:05 77.3 °F 60.4 °F 29.79 in WSW 4.0 mph 12.0 mph 56% 0.00 in
09:10 78.0 °F 61.0 °F 29.79 in WSW 8.0 mph 17.0 mph 56% 0.00 in
09:15 78.6 °F 61.1 °F 29.79 in West 5.0 mph 14.0 mph 55% 0.00 in
09:20 79.1 °F 62.1 °F 29.79 in SSW 6.0 mph 18.0 mph 56% 0.00 in
09:25 79.0 °F 60.9 °F 29.80 in SW 10.0 mph 19.0 mph 54% 0.00 in
09:30 79.0 °F 61.5 °F 29.79 in West 7.0 mph 17.0 mph 55% 0.00 in
09:35 79.1 °F 61.5 °F 29.80 in SW 8.0 mph 18.0 mph 55% 0.00 in
09:40 79.1 °F 62.1 °F 29.79 in SW 8.0 mph 18.0 mph 56% 0.00 in
09:45 79.3 °F 61.2 °F 29.79 in SW 9.0 mph 18.0 mph 54% 0.00 in
09:50 79.3 °F 61.2 °F 29.79 in SW 9.0 mph 18.0 mph 54% 0.00 in
09:55 79.2 °F 61.6 °F 29.79 in SW 9.0 mph 17.0 mph 55% 0.00 in
10:00 79.3 °F 61.7 °F 29.79 in SW 9.0 mph 19.0 mph 55% 0.00 in
10:05 79.5 °F 61.4 °F 29.79 in West 8.0 mph 18.0 mph 54% 0.00 in
10:10 79.9 °F 62.8 °F 29.79 in SW 6.0 mph 16.0 mph 56% 0.00 in
10:15 80.1 °F 62.5 °F 29.79 in WSW 7.0 mph 19.0 mph 55% 0.00 in
10:20 80.2 °F 62.0 °F 29.79 in WSW 12.0 mph 18.0 mph 54% 0.00 in
10:25 80.2 °F 61.5 °F 29.79 in West 16.0 mph 19.0 mph 53% 0.00 in
10:30 80.4 °F 62.2 °F 29.80 in WSW 11.0 mph 20.0 mph 54% 0.00 in
10:35 80.5 °F 62.3 °F 29.80 in WSW 11.0 mph 23.0 mph 54% 0.00 in
10:40 80.3 °F 62.1 °F 29.80 in WNW 11.0 mph 23.0 mph 54% 0.00 in
10:45 80.3 °F 62.7 °F 29.79 in WSW 11.0 mph 26.0 mph 55% 0.00 in
10:50 80.6 °F 62.4 °F 29.80 in WSW 18.0 mph 20.0 mph 54% 0.00 in
10:55 80.9 °F 63.2 °F 29.80 in SW 10.0 mph 22.0 mph 55% 0.00 in
11:00 80.7 °F 62.5 °F 29.79 in WSW 10.0 mph 22.0 mph 54% 0.00 in
11:05 80.8 °F 62.6 °F 29.79 in SW 10.0 mph 20.0 mph 54% 0.00 in
11:10 81.2 °F 63.5 °F 29.79 in SW 8.0 mph 20.0 mph 55% 0.00 in
11:15 81.3 °F 63.6 °F 29.79 in WSW 8.0 mph 18.0 mph 55% 0.00 in
11:20 81.3 °F 63.1 °F 29.79 in WNW 13.0 mph 24.0 mph 54% 0.00 in
11:25 81.3 °F 63.1 °F 29.79 in WSW 9.0 mph 24.0 mph 54% 0.00 in
11:30 81.3 °F 63.6 °F 29.80 in WSW 10.0 mph 19.0 mph 55% 0.00 in
11:35 81.3 °F 63.1 °F 29.79 in SW 15.0 mph 18.0 mph 54% 0.00 in
11:45 80.5 °F 62.8 °F 29.79 in WSW 14.0 mph 22.0 mph 55% 0.00 in
11:50 80.7 °F 63.5 °F 29.80 in WSW 11.0 mph 24.0 mph 56% 0.00 in
11:55 80.8 °F 63.6 °F 29.80 in WSW 13.0 mph 24.0 mph 56% 0.00 in
12:00 81.1 °F 63.4 °F 29.80 in WSW 11.0 mph 22.0 mph 55% 0.00 in
12:05 81.4 °F 63.2 °F 29.80 in WSW 10.0 mph 22.0 mph 54% 0.00 in
12:10 81.2 °F 63.5 °F 29.80 in WSW 11.0 mph 23.0 mph 55% 0.00 in
12:15 81.1 °F 63.4 °F 29.80 in WSW 12.0 mph 23.0 mph 55% 0.00 in
12:20 81.2 °F 63.5 °F 29.80 in WSW 12.0 mph 23.0 mph 55% 0.00 in
12:25 81.6 °F 64.4 °F 29.80 in WSW 6.0 mph 20.0 mph 56% 0.00 in
12:30 81.8 °F 63.5 °F 29.80 in WNW 5.0 mph 25.0 mph 54% 0.00 in
12:35 81.8 °F 64.1 °F 29.80 in West 11.0 mph 22.0 mph 55% 0.00 in
12:40 81.4 °F 63.2 °F 29.80 in West 10.0 mph 19.0 mph 54% 0.00 in
12:45 81.1 °F 63.4 °F 29.80 in WNW 15.0 mph 22.0 mph 55% 0.00 in
12:50 80.7 °F 63.0 °F 29.79 in West 8.0 mph 20.0 mph 55% 0.00 in
12:55 80.4 °F 63.8 °F 29.79 in WSW 11.0 mph 24.0 mph 57% 0.00 in
13:00 80.6 °F 64.0 °F 29.79 in WSW 11.0 mph 24.0 mph 57% 0.00 in
13:05 80.4 °F 63.8 °F 29.79 in WSW 10.0 mph 22.0 mph 57% 0.00 in
13:10 80.8 °F 64.6 °F 29.79 in West 8.0 mph 24.0 mph 58% 0.00 in
13:15 81.4 °F 63.7 °F 29.78 in NW 15.0 mph 20.0 mph 55% 0.00 in
13:20 81.6 °F 63.9 °F 29.78 in West 11.0 mph 26.0 mph 55% 0.00 in
13:25 81.6 °F 64.4 °F 29.78 in WSW 11.0 mph 26.0 mph 56% 0.00 in
13:30 82.3 °F 65.0 °F 29.78 in WSW 10.0 mph 20.0 mph 56% 0.00 in
13:35 82.1 °F 63.8 °F 29.78 in WSW 10.0 mph 28.0 mph 54% 0.00 in
13:40 82.3 °F 64.5 °F 29.77 in WNW 13.0 mph 21.0 mph 55% 0.00 in
13:45 82.2 °F 64.4 °F 29.77 in SW 11.0 mph 17.0 mph 55% 0.00 in
13:50 82.3 °F 64.5 °F 29.77 in West 18.0 mph 18.0 mph 55% 0.00 in
13:55 82.2 °F 63.4 °F 29.76 in WSW 11.0 mph 25.0 mph 53% 0.00 in
14:00 82.0 °F 64.2 °F 29.76 in West 9.0 mph 25.0 mph 55% 0.00 in
14:05 82.0 °F 63.7 °F 29.76 in WSW 9.0 mph 24.0 mph 54% 0.00 in
14:10 82.9 °F 64.0 °F 29.76 in West 12.0 mph 23.0 mph 53% 0.00 in
14:15 83.2 °F 63.7 °F 29.76 in SW 5.0 mph 16.0 mph 52% 0.00 in
14:20 82.7 °F 64.4 °F 29.76 in WSW 9.0 mph 20.0 mph 54% 0.00 in
14:25 82.3 °F 64.0 °F 29.75 in WSW 9.0 mph 22.0 mph 54% 0.00 in
14:30 81.9 °F 64.1 °F 29.76 in WSW 10.0 mph 22.0 mph 55% 0.00 in
14:35 82.1 °F 63.8 °F 29.75 in WSW 8.0 mph 17.0 mph 54% 0.00 in
14:40 82.0 °F 64.2 °F 29.75 in WSW 8.0 mph 17.0 mph 55% 0.00 in
14:45 81.6 °F 65.4 °F 29.75 in SW 10.0 mph 18.0 mph 58% 0.00 in
14:50 80.9 °F 63.7 °F 29.76 in WSW 10.0 mph 23.0 mph 56% 0.00 in
14:55 78.7 °F 62.2 °F 29.77 in WSW 16.0 mph 16.0 mph 57% 0.00 in
15:00 76.2 °F 61.8 °F 29.77 in WSW 7.0 mph 17.0 mph 61% 0.00 in
15:05 75.1 °F 61.2 °F 29.76 in WSW 11.0 mph 20.0 mph 62% 0.00 in
15:10 74.9 °F 61.5 °F 29.76 in SW 7.0 mph 18.0 mph 63% 0.00 in
15:15 75.7 °F 62.2 °F 29.75 in SW 9.0 mph 12.0 mph 63% 0.00 in
15:20 76.3 °F 61.9 °F 29.75 in WSW 7.0 mph 17.0 mph 61% 0.00 in
15:25 76.7 °F 62.7 °F 29.75 in WSW 8.0 mph 17.0 mph 62% 0.00 in
15:30 76.9 °F 62.4 °F 29.75 in WSW 8.0 mph 15.0 mph 61% 0.00 in
15:35 76.0 °F 62.0 °F 29.75 in WSW 8.0 mph 16.0 mph 62% 0.00 in
15:40 75.8 °F 62.3 °F 29.75 in NW 7.0 mph 17.0 mph 63% 0.00 in
15:45 76.1 °F 61.7 °F 29.75 in South 7.0 mph 15.0 mph 61% 0.00 in
15:50 76.8 °F 62.3 °F 29.75 in WSW 8.0 mph 15.0 mph 61% 0.00 in
15:55 77.3 °F 62.3 °F 29.75 in WSW 7.0 mph 14.0 mph 60% 0.00 in
16:00 78.2 °F 62.2 °F 29.74 in West 9.0 mph 17.0 mph 58% 0.00 in
16:05 78.4 °F 62.4 °F 29.74 in WSW 10.0 mph 18.0 mph 58% 0.00 in
16:10 79.1 °F 62.1 °F 29.74 in WSW 9.0 mph 20.0 mph 56% 0.00 in
16:15 79.7 °F 62.6 °F 29.74 in West 7.0 mph 16.0 mph 56% 0.00 in
16:20 79.8 °F 62.2 °F 29.74 in West 5.0 mph 22.0 mph 55% 0.00 in
16:25 79.6 °F 62.5 °F 29.74 in SW 8.0 mph 16.0 mph 56% 0.00 in
16:30 79.2 °F 62.7 °F 29.74 in WSW 10.0 mph 15.0 mph 57% 0.00 in
16:35 78.8 °F 62.8 °F 29.75 in South 7.0 mph 16.0 mph 58% 0.00 in
16:40 77.2 °F 61.3 °F 29.75 in South 5.0 mph 14.0 mph 58% 0.00 in
16:45 76.0 °F 61.1 °F 29.75 in SW 8.0 mph 19.0 mph 60% 0.00 in
16:50 75.7 °F 61.3 °F 29.75 in WSW 8.0 mph 19.0 mph 61% 0.00 in
16:55 75.6 °F 60.3 °F 29.75 in WSW 8.0 mph 18.0 mph 59% 0.00 in
17:00 76.1 °F 61.2 °F 29.75 in WSW 8.0 mph 18.0 mph 60% 0.00 in
17:05 76.1 °F 60.7 °F 29.74 in WSW 9.0 mph 17.0 mph 59% 0.00 in
17:10 76.3 °F 60.4 °F 29.74 in SW 11.0 mph 16.0 mph 58% 0.00 in
17:15 76.5 °F 60.6 °F 29.74 in WSW 8.0 mph 19.0 mph 58% 0.00 in
17:20 76.7 °F 60.3 °F 29.74 in WSW 8.0 mph 19.0 mph 57% 0.00 in
17:25 76.6 °F 60.2 °F 29.74 in WNW 9.0 mph 16.0 mph 57% 0.00 in
17:30 76.6 °F 60.2 °F 29.74 in SW 10.0 mph 18.0 mph 57% 0.00 in
17:35 76.2 °F 60.3 °F 29.74 in SSW 7.0 mph 17.0 mph 58% 0.00 in
17:40 76.2 °F 60.8 °F 29.73 in South 8.0 mph 19.0 mph 59% 0.00 in
17:45 76.1 °F 60.2 °F 29.73 in WSW 9.0 mph 19.0 mph 58% 0.00 in
17:50 75.9 °F 60.1 °F 29.73 in WSW 9.0 mph 18.0 mph 58% 0.00 in
17:55 75.4 °F 60.1 °F 29.73 in WSW 9.0 mph 19.0 mph 59% 0.00 in
18:00 75.0 °F 59.7 °F 29.73 in West 5.0 mph 14.0 mph 59% 0.00 in
18:05 74.9 °F 59.6 °F 29.73 in WSW 10.0 mph 24.0 mph 59% 0.00 in
18:10 74.7 °F 59.4 °F 29.73 in WSW 10.0 mph 24.0 mph 59% 0.00 in
18:15 74.4 °F 59.6 °F 29.73 in WSW 10.0 mph 20.0 mph 60% 0.00 in
18:20 74.3 °F 59.0 °F 29.73 in WSW 6.0 mph 24.0 mph 59% 0.00 in
18:25 74.2 °F 59.4 °F 29.73 in WSW 10.0 mph 17.0 mph 60% 0.00 in
18:30 74.0 °F 59.2 °F 29.72 in SW 6.0 mph 16.0 mph 60% 0.00 in
18:35 73.9 °F 59.6 °F 29.72 in NW 10.0 mph 18.0 mph 61% 0.00 in
18:40 73.9 °F 59.1 °F 29.72 in WSW 8.0 mph 18.0 mph 60% 0.00 in
18:45 73.9 °F 59.1 °F 29.72 in WSW 7.0 mph 15.0 mph 60% 0.00 in
18:50 74.0 °F 59.2 °F 29.72 in WSW 7.0 mph 15.0 mph 60% 0.00 in
18:55 74.1 °F 59.3 °F 29.73 in WSW 6.0 mph 14.0 mph 60% 0.00 in
19:00 73.9 °F 59.1 °F 29.73 in SSW 2.0 mph 10.0 mph 60% 0.00 in
19:05 73.6 °F 58.9 °F 29.73 in SSW 10.0 mph 14.0 mph 60% 0.00 in
19:10 73.1 °F 58.8 °F 29.73 in West 5.0 mph 17.0 mph 61% 0.00 in
19:15 72.8 °F 58.1 °F 29.73 in SW 7.0 mph 17.0 mph 60% 0.00 in
19:20 72.5 °F 58.3 °F 29.73 in SW 7.0 mph 15.0 mph 61% 0.00 in
19:25 72.4 °F 58.2 °F 29.73 in SW 10.0 mph 19.0 mph 61% 0.00 in
19:30 72.4 °F 58.2 °F 29.73 in SSW 8.0 mph 17.0 mph 61% 0.00 in
19:35 72.6 °F 58.4 °F 29.73 in SW 6.0 mph 17.0 mph 61% 0.00 in
19:40 72.7 °F 58.5 °F 29.73 in WSW 10.0 mph 17.0 mph 61% 0.00 in
19:45 72.8 °F 58.6 °F 29.73 in SW 9.0 mph 17.0 mph 61% 0.00 in
19:50 72.7 °F 58.5 °F 29.73 in SW 8.0 mph 17.0 mph 61% 0.00 in
19:55 72.4 °F 58.2 °F 29.73 in SW 7.0 mph 17.0 mph 61% 0.00 in
20:00 72.0 °F 58.3 °F 29.74 in SW 9.0 mph 13.0 mph 62% 0.00 in
20:05 71.5 °F 57.8 °F 29.74 in SW 4.0 mph 14.0 mph 62% 0.00 in
20:10 71.0 °F 57.8 °F 29.74 in WSW 5.0 mph 12.0 mph 63% 0.00 in
20:15 70.8 °F 58.0 °F 29.74 in WSW 6.0 mph 12.0 mph 64% 0.00 in
20:20 70.9 °F 58.1 °F 29.73 in SW 6.0 mph 13.0 mph 64% 0.00 in
20:25 71.0 °F 58.2 °F 29.73 in SW 7.0 mph 13.0 mph 64% 0.00 in
20:30 71.3 °F 58.1 °F 29.73 in SSE 8.0 mph 14.0 mph 63% 0.00 in
20:35 71.7 °F 58.0 °F 29.73 in WSW 9.0 mph 16.0 mph 62% 0.00 in
20:40 71.8 °F 58.1 °F 29.73 in SW 8.0 mph 16.0 mph 62% 0.00 in
20:45 71.6 °F 57.9 °F 29.73 in SW 7.0 mph 16.0 mph 62% 0.00 in
20:50 71.4 °F 57.7 °F 29.73 in SW 3.0 mph 11.0 mph 62% 0.00 in
20:55 71.3 °F 57.6 °F 29.73 in SSW 4.0 mph 11.0 mph 62% 0.00 in
21:00 71.2 °F 58.0 °F 29.73 in SW 4.0 mph 10.0 mph 63% 0.00 in
21:05 71.1 °F 57.4 °F 29.73 in SSW 4.0 mph 11.0 mph 62% 0.00 in
21:10 71.1 °F 57.9 °F 29.73 in SW 5.0 mph 11.0 mph 63% 0.00 in
21:15 70.9 °F 57.7 °F 29.74 in SW 5.0 mph 11.0 mph 63% 0.00 in
21:20 70.9 °F 57.7 °F 29.74 in SW 5.0 mph 11.0 mph 63% 0.00 in
21:25 70.9 °F 58.1 °F 29.74 in SW 5.0 mph 10.0 mph 64% 0.00 in
21:30 70.7 °F 57.5 °F 29.74 in SW 3.0 mph 12.0 mph 63% 0.00 in
21:35 70.3 °F 57.1 °F 29.75 in SW 6.0 mph 12.0 mph 63% 0.00 in
21:40 69.9 °F 56.7 °F 29.75 in SW 5.0 mph 12.0 mph 63% 0.00 in
21:45 69.7 °F 57.0 °F 29.75 in SW 6.0 mph 12.0 mph 64% 0.00 in
21:50 69.4 °F 56.7 °F 29.75 in West 10.0 mph 14.0 mph 64% 0.00 in
21:55 69.4 °F 56.7 °F 29.75 in WSW 7.0 mph 17.0 mph 64% 0.00 in
22:00 69.5 °F 56.3 °F 29.75 in WNW 6.0 mph 20.0 mph 63% 0.00 in
22:05 69.4 °F 56.3 °F 29.75 in WSW 8.0 mph 20.0 mph 63% 0.00 in
22:10 69.4 °F 56.3 °F 29.75 in WSW 7.0 mph 15.0 mph 63% 0.00 in
22:15 69.6 °F 56.4 °F 29.76 in West 9.0 mph 16.0 mph 63% 0.00 in
22:20 69.8 °F 56.2 °F 29.78 in WNW 10.0 mph 16.0 mph 62% 0.00 in
22:25 69.9 °F 56.3 °F 29.78 in WNW 4.0 mph 14.0 mph 62% 0.00 in
22:30 70.4 °F 56.3 °F 29.78 in WNW 6.0 mph 14.0 mph 61% 0.00 in
22:35 71.4 °F 56.3 °F 29.78 in West 7.0 mph 22.0 mph 59% 0.00 in
22:40 72.1 °F 56.5 °F 29.78 in West 8.0 mph 22.0 mph 58% 0.00 in
22:45 73.0 °F 56.9 °F 29.79 in WSW 8.0 mph 16.0 mph 57% 0.00 in
22:50 73.5 °F 56.8 °F 29.79 in WSW 7.0 mph 22.0 mph 56% 0.00 in
22:55 74.2 °F 57.5 °F 29.80 in West 8.0 mph 23.0 mph 56% 0.00 in
23:00 74.3 °F 57.6 °F 29.80 in North 6.0 mph 18.0 mph 56% 0.00 in
23:05 74.0 °F 57.8 °F 29.79 in West 3.0 mph 18.0 mph 57% 0.00 in
23:10 73.9 °F 58.2 °F 29.79 in NW 5.0 mph 16.0 mph 58% 0.00 in
23:15 73.7 °F 58.5 °F 29.79 in West 8.0 mph 16.0 mph 59% 0.00 in
23:20 73.4 °F 58.7 °F 29.80 in WSW 3.0 mph 12.0 mph 60% 0.00 in
23:25 73.2 °F 58.9 °F 29.80 in West 4.0 mph 14.0 mph 61% 0.00 in
23:30 72.8 °F 59.0 °F 29.80 in West 5.0 mph 14.0 mph 62% 0.00 in
23:35 72.3 °F 58.5 °F 29.80 in West 5.0 mph 12.0 mph 62% 0.00 in
23:40 71.8 °F 58.5 °F 29.80 in WSW 5.0 mph 12.0 mph 63% 0.00 in
23:45 71.2 °F 58.4 °F 29.80 in WSW 4.0 mph 9.0 mph 64% 0.00 in
23:50 70.7 °F 58.4 °F 29.79 in WSW 2.0 mph 9.0 mph 65% 0.00 in
23:55 70.4 °F 58.5 °F 29.79 in West 7.0 mph 11.0 mph 66% 0.00 in
Buffalo, New York, USA
Compliments of Weather Underground - 2.5 mb